COSMOS 1275 DEB, 42107

Orbit data source: Space-Track

COSMOS 1275 DEB, 42107 is space debris in LEO originally from a launch on Thu, 04 Jun 1981 UTC launched from the Plesetsk Missile And Space Complex (PKMTR). Debris objects in space refer to the collection of defunct objects orbiting the Earth. Examples of debris include non-operational satellites, rocket bodies, and fragments generated from explosions, collisions, or faulty payload assembly.

Loading next visibility...
Identifier
42107, 1981-053PT
Orbit
LEO
Country
Flag of CISCIS
Related business
Manufacturer
Unknown
Mission
Spacecraft
Bus & Motor
Unknown
Mass
Unknown
Launch date (UTC)
1981-06-04 (45 years ago)
Launch vehicle
Unknown
Launch site
Plesetsk Missile And Space Complex (PKMTR)
Object type
Payload
Rocket body
Debris
Shape & HBR
Unknown shape, 0.1 m
Radar Cross Section
Small (<0.1 m²)

Expand to show TLE details & history
Last TLE update: 3 days ago

TLE from 3 days ago
0 COSMOS 1275 DEB
1 42107U 81053PT  26061.13343767  .00002933  00000-0  16223-2 0  9993
2 42107  82.8056 200.9446 0042589 338.0562  21.8788 14.10620721627750
Epoch: 2026-03-02T03:12Z
TLE epoch observation values (Epoch: 2026-03-02T03:12:09.014Z)
Latitude
-0.00004°
Longitude
-7.02419°
Altitude
831.611 km
Speed
7.452 km/s
True Right ascension
13h 23m 46s
True Declination
0° 00' 00"
Sunlit
Object was in full shadow at epoch
Visualization orbit readout
Latitude
Unknown
Longitude
Unknown
Altitude
Unknown
Speed
Unknown
Apparent Right ascension
Unknown
Apparent Declination
Unknown
Sunlit
N/A
Visualization observer readout
Local Sidereal Time
00:02:59
Azimuth
Unknown
Elevation
Unknown
Doppler factor
Unknown
Orbital elements
Apogee altitude
885.156 km
Perigee altitude
823.551 km
Semi-major axis
7,232.49 km
Eccentricity
0.00426
Inclination
82.8056°
RAAN
200.9446°
Arg. of periapsis
338.0562°
True anomaly
22.06157°
Mean anomaly
21.8788°
Eccentric anomaly
21.97009°
Mean motion
3.52867 °/min
Orbital period
102.02 mins
BSTAR
0.0016223
Loading maneuver chart data...
Computing Atmospheric mass density...

Documentation

Showing up to 5 results
|